Regional Weather Roundup
Issued by NWS Burlington, VT

Home | Current Version | Previous Version | Text Only | Print | Product List | Glossary On
Versions: 1 2 3 4 5 6 7 8 9 10 11 12 13 14 15 16 17 18 19 20 21 22 23 24 25 26 27 28 29 30 31 32 33 34 35 36 37 38 39 40 41 42 43 44 45 46 47 48 49 50
000
ASUS41 KBTV 061330
RWRBTV
VERMONT REGIONAL WEATHER ROUNDUP
NATIONAL WEATHER SERVICE BURLINGTON VT
900 AM EDT WED MAY 06 2015

NOTE: "FAIR" INDICATES FEW OR NO CLOUDS BELOW 12,000 FEET WITH NO
SIGNIFICANT WEATHER AND/OR OBSTRUCTIONS TO VISIBILITY.

* THESE REPORTS ARE NOT UNDER NWS QUALITY CONTROL AND/OR DO NOT
  REPORT WEATHER SUCH AS PRECIPITATION AND FOG.

VTZ001>019-061400-
_____VERMONT_____


CITY           SKY/WX    TMP DP  RH WIND       PRES   REMARKS
BURLINGTON     SUNNY     61  38  42 S6        30.31S
MONTPELIER     SUNNY     55  39  54 CALM      30.34S
MORRISVILLE    SUNNY     58  42  55 CALM      30.32S
ST. JOHNSBURY*   N/A     52  36  54 MISG      30.29F
LYNDONVILLE*     N/A     56  34  42 SE3       30.31S
MIDDLEBURY*      N/A     60  37  41 CALM      30.32S
RUTLAND*       SUNNY     59  36  41 CALM      30.33S
SPRINGFIELD    SUNNY     55  38  52 CALM      30.33S
NEWPORT*         N/A     59  37  44 CALM      30.29F
BENNINGTON     PTSUNNY   63  37  38 N5        30.31S
GALLUP MILLS*    N/A     57 N/A N/A MISG        N/A
MT. MANSFIELD*   N/A     46 N/A N/A CALM        N/A

_____LAKE CHAMPLAIN_____


CITY           SKY/WX    TMP DP  RH WIND       PRES   REMARKS
BURTON ISLAND*   N/A     52  43  71 S7          N/A
COLCHESTER RF*   N/A     46  39  76 S9          N/A
DIAMOND ISL*     N/A     52  41  66 S1          N/A

$$

NYZ007-026>031-035-052-083-061400-
_____NORTHERN NEW YORK_____


CITY           SKY/WX    TMP DP  RH WIND       PRES   REMARKS
PLATTSBURGH    SUNNY     54  39  57 SE8       30.30S
SARANAC LAKE   SUNNY     54  38  54 S6        30.31S
MASSENA        SUNNY     60  42  51 SW6       30.32R
OGDENSBURG*    SUNNY     63  46  55 SW3       30.32S
POTSDAM*       SUNNY     59  39  47 SW5       30.31S
STARK FALLS*     N/A     54 N/A N/A SE8         N/A
WATERTOWN      SUNNY     59  42  53 CALM      30.32R
FT DRUM        SUNNY     59  42  53 VRB3      30.32R
ALBANY         PTSUNNY   63  41  44 NE3       30.32S
GLENS FALLS    SUNNY     61  42  49 CALM      30.32R

$$
NHZ002-005-011-061400-
_____NEW HAMPSHIRE_____


CITY           SKY/WX    TMP DP  RH WIND       PRES   REMARKS
LEBANON        SUNNY     54  38  54 CALM      30.32F
KEENE          PTSUNNY  N/A N/A N/A CALM      30.32F
MT WASHINGTON  SUNNY     34  18  51 N38         N/A
PLYMOUTH         N/A     57  43  59 CALM      30.31S
WHITEFIELD     SUNNY     56  37  49 CALM      30.30S

$$

_____REGIONAL QUEBEC LOCATIONS_____


CITY           SKY/WX    TMP DP  RH WIND       PRES   REMARKS
MONTREAL       SUNNY     59  41  51 SW7       30.28S
QUEBEC CITY    PTSUNNY   54  36  50 SW12      30.23F
SHERBROOKE     SUNNY     54  37  54 W6        30.27S

_____REGIONAL ONTARIO LOCATIONS_____


CITY           SKY/WX    TMP DP  RH WIND       PRES   REMARKS
OTTAWA         SUNNY     61  37  41 SW8       30.31R

______KEY______
VSB  - VISIBILITY IN MILES
WCI  - WIND CHILL INDEX
HX   - HEAT INDEX
$$
NNNN



USA.gov is the U.S. government's official web portal to all federal, state and local government web resources and services.